Location: Kalberh�ni
(46.4610°N, 7.2453°E)
Time: 05:07:41
(UTC+00:00)

Cosmos 2333 Rocket - Pass Details

Date: 28 October 2021
Orbit: 837 x 865 km, 70.8° (Epoch: 05 December)

Event Time Altitude Azimuth Distance (km) Brightness Sun altitude
Rises 17:31:20 0° 182° (S) 3,384 5.5 -12.5°
Reaches altitude 10° 17:33:53 10° 175° (S) 2,457 4.6 -12.9°
Maximum altitude 17:39:06 40° 107° (ESE) 1,226 2.6 -13.8°
Drops below altitude 10° 17:44:24 10° 40° (NE) 2,490 4.2 -14.7°
Enters shadow 17:44:39 - 39° (NE) 2,580 4.3 -14.8°
